Location: Boiro
(42.6475°N, 8.8834°W)
Time: 19:20:03
(UTC+01:00)

A-11 Canister half - Pass Details

Date: 30 November 2021
Orbit: 1516 x 1684 km, 47.2° (Epoch: 26 January)

Event Time Altitude Azimuth Distance (km) Brightness Sun altitude
Rises 11:45:44 0° 266° (W) 4,827 11.4 21.7°
Reaches altitude 10° 11:48:51 10° 269° (W) 3,863 10.9 22.0°
Maximum altitude 11:58:46 70° 353° (N) 1,755 9.5 22.7°
Drops below altitude 10° 12:08:57 10° 77° (ENE) 3,949 11.3 23.3°
Sets 12:12:11 0° 80° (E) 4,939 11.8 23.5°
